Theta_e
320 320 321 321 321 322 322 322 321 321 321 320 318 316 314 314 315 316 315 314 313 313 312 311 310 310 310 311 312 313 314 315 315 314 314 312 314 316 317 320 323 323 322
322 323 323 323 322 322 323 322 322 322 320 315 312 311 311 311 311 311 311 311 311 310 309 309 308 307 311 311 312 312 313 314 312 311 312 311 310 315 315 318 319 319 319
325 325 324 324 323 323 323 322 321 318 314 311 311 309 309 308 308 308 309 310 309 308 307 306 306 308 308 309 311 311 311 309 308 307 307 308 309 310 312 314 315 316 317
326 325 324 324 323 323 321 319 314 312 310 309 308 307 306 307 307 308 308 308 307 306 305 305 306 307 308 309 309 308 308 308 307 306 304 304 304 306 309 311 312 313 313
326 325 324 323 321 320 317 313 311 310 308 308 307 306 306 307 306 306 305 306 305 304 304 304 305 305 306 307 307 307 306 306 305 304 303 303 303 304 307 308 309 310 311
326 325 323 320 318 314 312 311 309 308 307 305 305 305 305 305 305 304 304 303 303 302 303 303 303 303 304 305 305 305 304 304 302 301 303 303 304 305 305 305 306 308 309
323 322 320 315 313 312 310 309 308 305 303 304 304 304 305 305 304 304 303 302 301 300 301 300 300 301 303 303 303 303 302 301 301 302 302 303 303 303 306 306 305 305 307
319 315 314 313 311 310 309 308 305 304 304 304 304 303 303 303 302 302 301 301 300 299 298 300 302 303 304 302 301 300 300 300 301 302 302 303 304 306 305 305 307 306 306
315 314 312 311 310 308 307 305 303 304 304 303 302 302 302 302 301 301 300 299 299 298 298 301 302 303 303 301 300 301 300 301 301 301 302 302 302 304 305 303 304 305 306
314 312 310 309 309 307 305 303 304 303 301 301 302 302 301 300 298 298 298 298 298 300 301 301 301 301 301 301 302 301 300 300 300 299 300 301 301 301 300 300 303 303 304
311 310 309 307 306 304 303 304 302 299 298 299 300 300 299 299 298 298 298 299 298 300 300 300 301 301 301 300 299 299 299 299 299 300 300 301 301 300 299 300 301 302 303
310 310 308 306 304 303 302 300 300 298 300 299 297 298 298 298 299 299 299 299 299 299 300 301 300 300 299 298 297 298 298 299 298 299 300 301 301 300 300 301 301 301 302
310 309 307 305 303 302 302 301 301 301 301 300 299 296 298 298 299 299 300 299 300 300 300 300 298 297 297 296 296 297 298 298 298 299 300 301 301 301 301 301 301 300 301
309 308 306 305 302 303 302 302 302 303 302 301 300 296 296 298 298 299 299 299 300 300 300 298 297 297 297 295 294 296 298 298 298 299 299 300 300 300 301 301 301 300 300
307 306 306 305 303 303 303 303 303 303 303 303 301 298 298 299 298 298 299 300 300 300 299 298 298 298 298 296 295 297 297 297 297 297 298 299 299 299 299 299 300 300 301
306 306 305 305 304 304 304 304 304 302 303 303 303 299 298 299 299 300 300 300 300 299 299 298 298 298 298 297 296 296 296 296 296 295 296 297 298 298 298 298 299 300 300
306 305 305 305 304 303 304 304 303 303 304 304 302 300 299 297 299 299 300 300 299 299 298 298 298 298 297 297 296 296 295 295 295 294 293 295 297 297 298 298 298 299 300
305 305 304 303 303 304 304 304 304 304 304 304 302 301 300 298 299 299 299 299 299 298 298 298 298 298 297 296 296 296 295 295 295 295 294 293 294 296 297 297 298 299 299
305 304 303 304 304 304 304 304 303 303 303 303 302 301 300 299 299 299 299 299 299 299 299 299 298 297 296 296 296 295 294 293 293 294 294 293 292 295 297 297 298 297 296
305 305 305 302 304 305 304 302 302 302 302 302 301 301 300 299 299 299 299 299 299 299 299 299 298 297 296 296 296 296 296 295 293 291 291 292 292 292 295 297 297 297 295
305 305 304 304 304 304 303 303 302 302 302 302 301 301 300 299 299 299 299 299 299 299 299 299 299 298 298 297 297 297 296 295 296 293 291 290 291 292 294 296 296 296 296
306 305 304 304 303 303 303 303 302 302 302 302 301 300 300 300 300 299 299 299 299 299 299 299 299 299 299 298 298 297 297 297 296 296 295 291 291 293 295 296 296 296 296
306 305 305 304 304 304 303 303 302 302 302 302 302 301 301 300 300 300 300 299 299 299 299 300 300 300 299 299 299 299 299 299 298 298 296 295 291 292 295 295 295 295 295
306 305 305 305 304 303 303 303 302 302 302 302 302 302 301 301 300 300 300 300 300 299 300 300 300 300 299 299 299 299 299 299 299 298 297 296 295 291 294 294 294 294 294
303 303 305 305 304 304 304 304 303 303 303 303 302 302 302 301 300 300 300 300 300 300 300 300 300 300 300 299 299 299 299 299 299 298 298 297 296 295 291 292 293 293 293
299 301 304 304 304 304 303 303 303 303 303 303 303 303 303 302 302 302 301 300 300 300 300 300 300 300 300 300 299 299 299 298 299 300 299 298 297 296 294 291 291 292 293
Wind_Speed
14 12 11 8 7 7 5 4 6 9 12 16 18 20 19 18 17 17 17 17 20 20 21 24 27 25 25 22 20 20 19 17 16 20 22 19 14 13 11 10 8 8 8
13 11 8 7 10 12 9 8 10 12 15 16 14 15 16 17 17 17 17 17 17 20 24 24 22 22 20 19 16 16 16 16 17 19 19 20 17 13 11 9 10 8 7
13 11 14 14 17 15 14 12 12 13 13 12 12 15 18 20 18 18 18 17 19 23 26 23 19 18 18 17 15 15 14 16 19 20 22 22 20 18 18 15 12 10 9
20 19 20 21 19 15 10 9 9 10 10 16 19 22 22 17 14 13 14 15 18 22 22 20 18 17 15 15 15 16 18 20 21 23 25 25 25 23 20 19 22 18 17
24 22 23 20 13 7 7 9 7 10 13 15 18 18 15 14 14 15 15 16 17 18 14 16 17 16 15 17 16 16 18 20 22 23 24 26 25 26 23 20 20 21 21
17 20 17 12 9 6 5 5 10 11 14 16 14 12 12 13 15 14 15 16 15 16 18 19 19 17 14 13 15 17 18 19 21 22 22 24 25 26 27 25 23 24 26
19 17 15 8 3 3 3 6 11 16 11 9 10 11 12 14 15 16 16 17 18 18 18 18 16 15 12 14 18 16 16 16 15 17 20 20 22 20 20 26 23 22 25
16 15 11 7 5 3 4 10 14 11 8 9 9 11 12 13 15 17 17 19 16 16 16 14 9 11 12 15 17 14 13 14 14 12 13 13 13 13 18 21 21 18 22
15 14 11 7 4 2 8 12 8 5 5 7 9 10 12 14 18 16 18 18 17 18 13 11 9 11 12 15 14 13 12 15 11 11 10 12 11 12 16 18 17 18 18
16 12 10 6 3 8 7 2 5 7 9 8 7 11 13 17 15 16 17 18 17 14 12 11 11 13 13 12 14 17 20 17 13 13 13 12 16 15 17 14 14 15 15
16 12 6 1 6 4 5 6 8 8 8 9 8 9 11 13 15 16 17 16 13 13 15 15 13 13 12 13 14 13 14 11 11 13 15 16 17 17 16 12 13 13 11
14 8 3 2 3 5 7 11 11 13 14 15 11 7 9 11 13 13 14 15 14 14 14 12 13 14 14 13 12 12 9 9 11 12 13 16 18 20 20 18 12 12 10
11 7 4 5 3 11 9 8 5 8 10 12 15 11 9 11 11 12 12 13 13 13 13 13 11 13 18 17 15 11 9 10 12 11 13 17 13 18 20 20 15 15 11
8 6 9 6 5 10 8 5 3 5 6 8 11 12 10 11 11 10 11 12 12 11 10 9 11 16 22 18 11 9 10 11 14 14 13 12 13 16 18 14 16 18 17
8 10 12 9 6 9 7 2 2 4 6 7 8 11 10 11 12 11 11 12 15 11 9 10 12 19 24 22 16 11 12 13 13 16 15 12 14 12 15 16 16 14 15
13 14 14 12 8 5 3 2 2 2 4 7 5 7 7 7 8 8 8 10 11 12 10 10 12 16 21 20 19 14 13 15 17 18 15 14 14 14 14 12 15 18 12
18 17 13 13 6 7 4 1 3 2 7 8 4 2 10 4 6 5 5 6 6 12 16 14 13 16 18 16 17 15 15 16 18 20 18 13 12 12 14 16 16 16 13
19 16 13 12 11 6 5 6 8 8 9 11 3 5 7 6 3 4 5 7 9 12 16 16 14 15 16 14 15 16 17 18 20 20 19 14 12 9 12 17 16 14 14
18 15 13 13 10 6 5 7 6 2 4 2 3 6 7 8 0 3 7 10 12 13 13 18 14 16 15 13 14 17 19 19 19 18 17 15 15 6 8 14 10 13 17
15 11 8 6 10 3 5 4 4 6 2 3 5 3 4 8 3 6 7 10 11 13 13 16 17 15 14 14 14 18 23 24 22 19 17 15 13 9 5 8 7 7 15
14 9 5 11 6 4 6 4 7 4 5 4 6 3 3 5 6 6 7 10 11 12 13 15 17 15 12 12 15 18 22 26 28 25 21 17 14 11 3 5 8 7 11
11 10 10 9 5 5 6 4 3 5 7 8 8 5 6 7 8 8 9 10 12 12 14 14 15 16 14 13 17 19 21 24 29 29 27 21 15 8 3 5 8 9 9
15 14 10 11 9 10 11 9 7 9 8 8 10 9 11 11 10 10 11 10 12 14 14 15 16 16 16 17 19 20 22 24 25 31 28 26 20 10 6 8 10 10 12
21 18 15 10 6 4 6 8 7 9 9 8 9 12 13 13 10 11 12 12 14 15 16 17 18 17 17 19 18 20 22 23 25 28 31 26 23 15 10 13 13 13 13
15 17 19 12 11 7 8 10 10 9 9 10 11 13 12 14 13 13 14 15 15 16 18 20 21 20 21 21 21 21 21 22 22 25 26 30 26 20 18 18 18 17 14
12 16 17 12 12 11 10 10 11 12 13 13 15 16 16 15 13 11 12 15 17 19 20 22 22 22 23 24 23 23 23 24 25 24 28 29 31 25 20 19 18 15 12
Wind_Direction
199 204 198 199 209 233 255 283 281 289 298 303 311 312 313 314 313 314 316 315 321 323 323 327 328 323 319 323 327 323 315 314 322 312 313 326 331 343 337 333 321 317 317
205 202 192 194 208 224 244 266 273 283 300 311 319 319 324 328 332 334 331 330 329 330 331 325 323 323 323 326 329 333 333 330 336 342 325 327 331 326 338 317 308 304 293
188 194 206 211 213 225 237 259 268 289 305 322 337 340 336 334 333 337 335 334 333 334 329 326 326 324 325 325 333 332 334 338 338 339 332 325 326 328 308 312 308 307 294
197 204 200 214 210 213 229 256 304 323 340 339 338 336 335 337 338 338 337 332 323 321 329 323 324 332 331 325 328 330 324 321 325 328 331 328 321 320 321 317 298 309 313
206 205 205 198 203 217 269 320 342 338 333 327 326 332 340 345 343 337 332 331 329 328 324 324 325 330 327 323 325 328 329 326 325 326 326 323 322 321 325 320 314 309 308
208 204 191 198 227 269 316 325 320 322 326 325 327 334 339 338 341 342 338 340 339 335 330 328 324 330 327 322 325 326 324 320 320 321 322 319 319 319 318 312 305 306 312
180 187 202 202 218 210 275 310 321 332 343 344 345 342 342 347 343 340 341 338 335 333 323 322 318 324 330 330 326 326 322 318 314 319 319 324 326 328 325 326 317 289 290
175 174 174 185 201 209 306 320 331 331 342 350 4 0 355 350 344 336 333 329 324 329 336 331 337 343 337 333 336 345 347 352 346 345 342 336 328 329 324 331 329 315 298
171 173 177 193 209 329 325 327 328 10 17 17 8 355 347 343 335 337 339 343 341 340 342 347 337 343 328 336 344 351 358 356 350 354 353 357 345 327 325 325 324 335 324
175 176 175 185 289 321 333 63 63 30 352 343 342 339 341 342 354 355 356 355 5 25 24 9 354 351 357 355 348 341 338 341 352 350 353 356 358 350 351 332 324 330 314
169 163 172 288 328 344 120 90 49 10 36 28 358 336 345 4 5 4 2 2 13 14 2 11 35 21 4 358 356 359 7 359 358 359 353 348 8 3 354 350 341 324 332
162 169 195 0 23 137 115 94 76 78 67 50 37 22 19 21 20 22 15 16 15 9 19 29 27 9 1 354 352 357 4 5 1 355 356 6 12 16 13 7 357 350 315
183 203 199 149 128 150 128 127 78 48 52 44 35 35 42 32 27 20 27 28 35 40 45 33 11 357 348 337 334 340 356 3 2 3 7 4 3 5 360 7 11 8 20
195 198 174 152 144 153 152 133 63 9 356 9 23 28 41 36 30 39 48 51 41 36 23 18 1 2 3 5 355 354 7 12 23 27 21 18 17 22 21 20 9 14 25
215 187 174 164 150 161 160 138 7 346 354 349 353 29 48 39 43 51 57 27 8 12 11 1 2 4 6 15 24 31 19 11 16 16 12 8 13 19 24 18 11 8 16
182 185 177 173 167 161 185 243 310 269 311 322 316 8 30 38 40 41 23 13 6 5 4 8 8 7 4 10 19 15 10 7 7 2 352 357 7 22 26 24 22 28 21
178 180 181 182 197 176 194 193 94 14 345 327 291 272 20 349 352 346 356 18 354 355 360 358 359 1 0 4 8 9 360 0 356 359 358 349 351 11 23 26 24 26 29
176 178 186 187 176 197 253 275 273 283 296 310 317 1 359 343 339 338 350 353 349 351 358 356 354 358 359 3 4 3 358 354 356 359 2 0 353 8 24 28 36 46 40
177 189 179 181 200 233 278 272 266 248 338 278 329 353 352 1 332 343 347 352 356 359 2 3 4 3 0 358 5 10 9 4 0 1 4 2 359 357 25 33 69 47 17
159 163 185 214 187 222 216 238 285 299 291 333 323 333 358 16 287 316 332 347 348 355 357 2 9 11 18 29 32 28 22 15 12 8 5 360 359 353 348 21 41 18 16
157 164 164 175 185 212 209 257 311 214 270 263 325 321 338 341 335 317 319 335 331 339 346 354 1 7 16 27 21 16 18 15 14 12 8 2 357 1 15 12 11 348 358
181 186 173 173 190 219 238 263 258 239 265 285 333 299 282 286 286 305 315 311 328 325 333 339 346 350 1 11 11 9 10 9 9 7 7 5 358 353 351 346 340 336 343
196 196 199 196 222 236 245 254 277 255 275 281 294 282 273 285 288 287 308 312 303 320 328 324 326 332 337 345 348 346 349 353 354 359 358 359 356 343 308 314 319 322 330
208 208 208 214 225 221 230 260 272 264 277 278 282 284 277 297 288 281 290 300 301 301 311 313 312 313 320 319 324 329 332 336 341 345 351 350 350 340 309 302 309 316 323
216 206 206 212 218 241 274 253 259 267 278 270 285 297 290 317 296 287 284 294 289 292 296 300 305 303 310 311 307 312 318 321 325 334 339 348 343 337 322 310 309 316 320
202 188 192 214 229 239 247 262 267 272 283 286 284 289 288 295 310 312 298 285 288 289 291 294 298 303 301 299 300 302 307 306 303 325 334 333 339 331 321 315 312 313 308